Location: Fort Worth, Tx
(32.7431°N, 97.3695°W)
Time: 06:28:42
(UTC-05:00)

Explorer 11/Cluster Stage 4 - Pass Details

Date: 14 February 2026
Orbit: 463 x 1176 km, 28.8° (Epoch: 5 March)

Event Time Altitude Azimuth Distance (km) Brightness Sun altitude
Rises 20:00:15 0° 266° (W) 2,578 11.5 -10.3°
Reaches altitude 10° 20:02:31 10° 255° (WSW) 1,760 10.0 -10.8°
Maximum altitude 20:06:02 29° 194° (SSW) 1,074 7.5 -11.5°
Drops below altitude 10° 20:10:06 10° 134° (SE) 2,057 8.4 -12.3°
Enters shadow 20:10:59 - 130° (SE) 2,370 8.6 -12.5°
